Change the Weather History Date:

Sunday, November 4, 2012

  Actual Average Record
Temperature  
Mean Temperature 37 °F -  
Max Temperature 41 °F 48 °F 66 °F (1982)
Min Temperature 33 °F 32 °F 6 °F (2002)
Degree Days  
Heating Degree Days 28    
Moisture  
Dew Point 28 °F    
Average Humidity 67    
Maximum Humidity 81    
Minimum Humidity 56    
Precipitation  
Precipitation 0.02 in - - ()
Sea Level Pressure  
Sea Level Pressure 29.66 in    
Wind  
Wind Speed 10 mph (NW)    
Max Wind Speed 18 mph    
Max Gust Speed 25 mph    
Visibility 10 miles    
Events      
Averages and records for this station are not official NWS values.
T = Trace of Precipitation, MM = Missing Value Source: NWS Daily Summary

Daily Weather History Graph

Daily Weather History Graph

Search for Another Location

Airport or City:

Trip Planner

Search our weather history database for the weather conditions in past years. The results will help you decide how hot, cold, wet, or windy it might be!

Date:

Astronomy

Nov. 04, 2012 Rise Set
Actual Time 6:19 AM EST 4:11 PM EST
Civil Twilight 5:47 AM EST 4:43 PM EST
Nautical Twilight 5:11 AM EST 5:19 PM EST
Astronomical Twilight 4:35 AM EST 5:54 PM EST
Moon 8:43 PM EST (11/4) 11:04 AM EST (11/4)
Length of Visible Light 10h 56m
Length of Day
9h 52m
Waning Gibbous, 72% of the Moon is Illuminated
Nov 4
Waning Gibbous
Nov 6
Last Quarter
Nov 13
New
Nov 20
First Quarter
Nov 28
Full

Hourly Weather History & Observations

Time (EST) Temp. Windchill Dew Point Humidity Pressure Visibility Wind Dir Wind Speed Gust Speed Precip Events Conditions
12:15 AM 41.0 °F 34.3 °F 33.8 °F 76% 29.54 in 10.0 mi NW 11.5 mph - N/A   Overcast
12:35 AM 41.0 °F 36.4 °F 33.8 °F 76% 29.55 in 10.0 mi WNW 6.9 mph - N/A   Overcast
12:55 AM 39.2 °F 32.0 °F 33.8 °F 81% 29.55 in 10.0 mi WNW 11.5 mph 17.3 mph N/A   Overcast
1:15 AM 39.2 °F 33.6 °F 33.8 °F 81% 29.55 in 10.0 mi WNW 8.1 mph - 0.01 in   Overcast
1:35 AM 39.2 °F 33.6 °F 33.8 °F 81% 29.55 in 10.0 mi NW 8.1 mph - 0.01 in   Overcast
1:55 AM 39.2 °F 33.0 °F 33.8 °F 81% 29.56 in 10.0 mi WNW 9.2 mph - 0.01 in   Overcast
1:15 AM 39.2 °F 33.0 °F 33.8 °F 81% 29.56 in 10.0 mi WNW 9.2 mph - N/A   Overcast
1:35 AM 39.2 °F 33.0 °F 32.0 °F 75% 29.56 in 10.0 mi WNW 9.2 mph - N/A   Overcast
1:55 AM 39.2 °F 33.6 °F 32.0 °F 75% 29.56 in 10.0 mi NW 8.1 mph - 0.01 in   Overcast
2:15 AM 39.2 °F 33.6 °F 33.8 °F 81% 29.56 in 10.0 mi WNW 8.1 mph - 0.01 in   Overcast
2:35 AM 39.2 °F 33.6 °F 32.0 °F 75% 29.56 in 10.0 mi WNW 8.1 mph - 0.01 in   Overcast
2:55 AM 39.2 °F 33.6 °F 32.0 °F 75% 29.56 in 10.0 mi WNW 8.1 mph - 0.01 in   Overcast
3:15 AM 39.2 °F 34.2 °F 32.0 °F 75% 29.57 in 10.0 mi WNW 6.9 mph - N/A   Overcast
3:35 AM 39.2 °F 34.2 °F 32.0 °F 75% 29.57 in 10.0 mi WNW 6.9 mph - N/A   Overcast
3:55 AM 39.2 °F 34.2 °F 32.0 °F 75% 29.57 in 10.0 mi WNW 6.9 mph - N/A   Overcast
4:15 AM 39.2 °F 32.5 °F 32.0 °F 75% 29.58 in 10.0 mi WNW 10.4 mph - N/A   Overcast
4:35 AM 39.2 °F 33.0 °F 32.0 °F 75% 29.58 in 10.0 mi WNW 9.2 mph - N/A   Overcast
4:55 AM 39.2 °F 33.0 °F 30.2 °F 70% 29.59 in 10.0 mi WNW 9.2 mph - N/A   Overcast
5:35 AM 39.2 °F 32.0 °F 30.2 °F 70% 29.60 in 10.0 mi NW 11.5 mph 17.3 mph N/A   Overcast
5:55 AM 37.4 °F 31.4 °F 30.2 °F 75% 29.60 in 10.0 mi NW 8.1 mph - N/A   Overcast
6:15 AM 37.4 °F 30.8 °F 30.2 °F 75% 29.61 in 10.0 mi NW 9.2 mph - N/A   Overcast
6:35 AM 37.4 °F 29.8 °F 30.2 °F 75% 29.61 in 10.0 mi NW 11.5 mph 16.1 mph N/A   Overcast
6:55 AM 37.4 °F 31.4 °F 30.2 °F 75% 29.62 in 10.0 mi WNW 8.1 mph - N/A   Overcast
7:15 AM 37.4 °F 30.8 °F 30.2 °F 75% 29.63 in 10.0 mi NW 9.2 mph - N/A   Overcast
7:35 AM 39.2 °F 33.6 °F 30.2 °F 70% 29.63 in 10.0 mi WNW 8.1 mph - N/A   Overcast
7:55 AM 39.2 °F 33.6 °F 30.2 °F 70% 29.64 in 10.0 mi NW 8.1 mph - N/A   Overcast
8:15 AM 39.2 °F 32.5 °F 30.2 °F 70% 29.64 in 10.0 mi NW 10.4 mph - N/A   Overcast
8:35 AM 39.2 °F 32.5 °F 30.2 °F 70% 29.64 in 10.0 mi NW 10.4 mph - N/A   Overcast
8:55 AM 39.2 °F 32.0 °F 28.4 °F 65% 29.64 in 10.0 mi NW 11.5 mph 21.9 mph N/A   Overcast
9:15 AM 39.2 °F 31.2 °F 28.4 °F 65% 29.65 in 10.0 mi NNW 13.8 mph 20.7 mph N/A   Overcast
9:35 AM 39.2 °F 31.2 °F 28.4 °F 65% 29.65 in 10.0 mi NW 13.8 mph 20.7 mph N/A   Overcast
9:55 AM 39.2 °F 32.0 °F 28.4 °F 65% 29.66 in 10.0 mi NW 11.5 mph - N/A   Overcast
10:15 AM 39.2 °F 32.0 °F 28.4 °F 65% 29.66 in 10.0 mi NNW 11.5 mph - N/A   Overcast
10:35 AM 39.2 °F 32.5 °F 28.4 °F 65% 29.66 in 10.0 mi NW 10.4 mph 21.9 mph N/A   Overcast
10:55 AM 41.0 °F 33.5 °F 28.4 °F 61% 29.66 in 10.0 mi NNW 13.8 mph 17.3 mph N/A   Overcast
11:15 AM 41.0 °F 33.1 °F 28.4 °F 61% 29.65 in 10.0 mi NNW 15.0 mph 18.4 mph N/A   Overcast
11:35 AM 41.0 °F 32.5 °F 28.4 °F 61% 29.65 in 10.0 mi NNW 17.3 mph 21.9 mph N/A   Overcast
11:55 AM 39.2 °F 32.0 °F 28.4 °F 65% 29.65 in 10.0 mi WNW 11.5 mph 18.4 mph N/A   Overcast
12:15 PM 39.2 °F 32.5 °F 28.4 °F 65% 29.66 in 10.0 mi NNW 10.4 mph 23.0 mph N/A   Overcast
12:35 PM 41.0 °F 34.3 °F 28.4 °F 61% 29.66 in 10.0 mi NNW 11.5 mph - N/A   Overcast
12:55 PM 41.0 °F 33.9 °F 28.4 °F 61% 29.66 in 10.0 mi NNW 12.7 mph 23.0 mph N/A   Overcast
1:15 PM 41.0 °F 32.2 °F 26.6 °F 57% 29.66 in 10.0 mi NNW 18.4 mph 25.3 mph N/A   Overcast
1:35 PM 39.2 °F 33.0 °F 26.6 °F 61% 29.67 in 10.0 mi NW 9.2 mph - N/A   Overcast
1:55 PM 41.0 °F 34.3 °F 26.6 °F 57% 29.67 in 10.0 mi NW 11.5 mph - N/A   Overcast
2:15 PM 39.2 °F 30.8 °F 26.6 °F 61% 29.68 in 10.0 mi NW 15.0 mph 23.0 mph N/A   Overcast
2:35 PM 39.2 °F 32.5 °F 26.6 °F 61% 29.68 in 10.0 mi NNW 10.4 mph - N/A   Overcast
2:55 PM 39.2 °F 30.8 °F 24.8 °F 56% 29.69 in 10.0 mi NW 15.0 mph 19.6 mph N/A   Overcast
3:15 PM 39.2 °F 31.2 °F 24.8 °F 56% 29.70 in 10.0 mi NW 13.8 mph 19.6 mph N/A   Overcast
3:35 PM 37.4 °F 28.5 °F 24.8 °F 60% 29.71 in 10.0 mi NW 15.0 mph - N/A   Overcast
3:55 PM 37.4 °F 28.5 °F 24.8 °F 60% 29.71 in 10.0 mi NW 15.0 mph 24.2 mph N/A   Overcast
4:15 PM 37.4 °F 30.8 °F 24.8 °F 60% 29.72 in 10.0 mi NW 9.2 mph 18.4 mph N/A   Overcast
4:35 PM 37.4 °F 29.3 °F 24.8 °F 60% 29.72 in 10.0 mi NW 12.7 mph - N/A   Overcast
4:55 PM 37.4 °F 29.8 °F 24.8 °F 60% 29.73 in 10.0 mi NNW 11.5 mph - N/A   Overcast
5:15 PM 37.4 °F 30.3 °F 24.8 °F 60% 29.73 in 10.0 mi NW 10.4 mph 17.3 mph N/A   Overcast
5:35 PM 37.4 °F 30.8 °F 23.0 °F 56% 29.74 in 10.0 mi NNW 9.2 mph 17.3 mph N/A   Overcast
5:55 PM 37.4 °F 30.8 °F 24.8 °F 60% 29.75 in 10.0 mi NW 9.2 mph - N/A   Overcast
6:15 PM 35.6 °F 28.0 °F 24.8 °F 65% 29.75 in 10.0 mi NW 10.4 mph - N/A   Overcast
6:35 PM 35.6 °F 27.1 °F 24.8 °F 65% 29.75 in 10.0 mi NNW 12.7 mph - N/A   Overcast
6:55 PM 35.6 °F 29.2 °F 24.8 °F 65% 29.76 in 10.0 mi WNW 8.1 mph - N/A   Overcast
7:15 PM 35.6 °F 28.0 °F 24.8 °F 65% 29.76 in 10.0 mi NNW 10.4 mph 19.6 mph N/A   Overcast
7:35 PM 35.6 °F 27.5 °F 24.8 °F 65% 29.76 in 10.0 mi NW 11.5 mph - N/A   Overcast
7:55 PM 35.6 °F 26.2 °F 24.8 °F 65% 29.77 in 10.0 mi NW 15.0 mph 24.2 mph N/A   Overcast
8:15 PM 35.6 °F 25.9 °F 23.0 °F 60% 29.78 in 10.0 mi NW 16.1 mph 23.0 mph N/A   Overcast
8:35 PM 33.8 °F 25.3 °F 24.8 °F 70% 29.78 in 10.0 mi NW 11.5 mph - N/A   Overcast
8:55 PM 33.8 °F 27.0 °F 23.0 °F 65% 29.78 in 10.0 mi NW 8.1 mph - N/A   Overcast
9:15 PM 33.8 °F 27.0 °F 24.8 °F 70% 29.78 in 10.0 mi NW 8.1 mph - N/A   Overcast
9:35 PM 33.8 °F 27.0 °F 24.8 °F 70% 29.78 in 10.0 mi NW 8.1 mph - N/A   Overcast
9:55 PM 33.8 °F 28.6 °F 24.8 °F 70% 29.78 in 10.0 mi NW 5.8 mph - N/A   Overcast
10:15 PM 33.8 °F 25.8 °F 21.2 °F 60% 29.78 in 10.0 mi NW 10.4 mph - N/A   Overcast
10:35 PM 33.8 °F 24.8 °F 21.2 °F 60% 29.78 in 10.0 mi NW 12.7 mph - N/A   Overcast
10:55 PM 33.8 °F 25.3 °F 19.4 °F 56% 29.79 in 10.0 mi NNW 11.5 mph 17.3 mph N/A   Overcast